Wind_Gust
3 5 6 10 8 9 10 9 8 9 9 9 9 6 8 6 6 6 7 6 8 9 6 4 5 5 5 7 5 7 8 7 6 6 9 9 8 8 11 10 10 10
3 5 7 8 8 8 7 9 9 10 8 8 8 6 4 5 8 5 6 7 8 7 7 5 5 6 7 8 7 8 9 11 11 9 11 12 10 10 9 8 9 10
5 6 7 8 9 8 8 8 9 9 9 8 7 6 4 6 8 7 5 8 9 7 6 5 6 6 7 9 8 8 9 10 10 9 11 10 10 10 9 7 9 10
6 8 8 7 8 8 8 9 8 8 8 9 8 6 5 7 6 6 7 9 8 5 6 7 7 7 8 10 9 10 9 9 8 8 10 9 9 8 10 7 9 10
7 6 7 6 5 6 6 7 8 7 8 6 7 6 5 7 6 6 7 7 8 5 8 8 8 10 9 10 9 10 9 9 8 8 10 10 9 8 8 8 8 9
6 9 8 7 8 10 11 9 8 8 8 7 8 3 5 6 5 6 9 5 6 9 8 8 10 9 9 9 10 10 9 10 9 10 11 10 10 11 10 10 10 11
7 8 8 8 9 9 9 8 7 7 8 7 7 5 3 6 4 9 7 8 6 11 10 9 9 9 8 7 9 8 10 9 10 12 12 11 12 14 13 12 12 11
7 7 8 10 10 8 8 7 7 8 7 6 7 5 4 7 4 6 6 7 7 9 9 10 10 11 8 8 10 10 9 9 11 12 12 12 12 13 14 13 13 14
11 8 8 9 10 8 8 7 7 7 7 5 9 3 2 6 3 7 5 6 8 9 8 9 10 8 8 9 10 11 11 12 12 12 12 13 14 13 14 13 14 13
11 10 9 9 9 8 8 7 7 6 6 6 8 6 4 5 3 5 6 6 8 10 8 8 9 8 8 9 10 11 12 13 13 14 14 13 13 14 14 14 14 14
12 12 10 10 9 8 8 6 6 6 5 8 4 3 2 3 5 6 7 8 9 10 10 8 7 8 10 11 11 11 13 13 13 14 14 14 14 14 14 14 14 13
13 12 12 11 9 8 8 7 6 6 7 4 6 6 1 2 4 6 8 10 11 13 12 12 12 10 9 10 12 12 13 14 14 15 14 14 14 15 14 13 14 15
14 13 12 12 11 9 8 6 7 6 8 7 6 7 4 5 7 10 9 12 13 14 14 13 13 13 13 10 11 12 13 15 15 14 14 13 13 14 14 14 15 15
14 12 12 11 11 9 8 7 8 8 9 7 5 7 7 7 9 10 11 13 13 13 13 13 12 12 12 13 10 12 14 13 15 15 14 13 13 13 13 14 14 14
14 14 12 13 12 11 8 6 9 8 7 6 5 5 6 10 8 11 14 14 13 12 11 11 11 10 10 11 12 10 14 14 14 14 14 13 13 14 13 13 12 13
16 14 15 15 12 11 9 10 10 9 8 7 6 5 8 9 10 10 13 14 13 12 10 9 9 8 9 12 12 13 12 14 15 15 13 11 12 12 12 11 11 11
16 17 16 16 14 12 11 11 11 9 10 7 6 5 6 9 11 12 12 13 13 11 9 8 7 8 9 13 15 15 14 14 14 14 13 12 11 11 10 9 8 8
17 18 17 16 15 15 14 12 11 10 9 7 8 7 6 9 11 13 13 13 13 11 9 8 6 7 9 13 15 16 13 15 13 13 12 11 9 9 8 9 8 7
18 19 19 17 16 15 14 13 13 11 10 10 10 7 7 10 10 13 14 13 14 11 9 7 6 5 7 11 14 14 15 13 12 11 11 10 11 11 10 8 7 10
19 19 19 18 16 15 14 14 13 12 10 10 9 7 8 9 10 13 13 13 13 12 10 8 5 5 6 9 13 16 16 11 9 10 9 9 9 9 8 9 9 10
20 19 19 18 17 16 15 15 13 12 12 11 11 10 10 12 12 12 12 13 13 12 11 8 6 4 5 8 12 15 16 11 11 10 11 9 10 9 9 9 11 12
20 19 19 18 18 18 17 16 13 15 13 11 10 9 8 8 7 11 13 14 13 13 11 9 7 5 4 7 10 13 14 12 12 12 10 10 11 11 11 11 9 11
21 20 19 20 19 19 18 16 15 15 12 12 11 10 10 10 11 10 13 15 14 12 12 9 7 6 5 6 7 10 11 11 11 11 10 10 11 9 10 9 9 9
21 21 21 20 19 20 18 16 15 14 13 13 15 12 11 10 10 10 11 14 15 13 14 12 9 8 7 7 7 8 10 13 11 12 10 11 10 9 9 9 12 17
20 20 20 20 20 19 18 17 18 17 13 12 12 12 12 10 11 12 11 12 14 14 17 15 11 9 9 9 8 9 11 10 12 12 12 10 11 10 8 9 9 13
18 20 20 21 21 18 17 18 16 15 14 14 12 12 12 11 11 11 13 11 13 14 14 14 13 9 10 11 9 10 11 12 11 13 13 11 10 12 10 7 7 7
Wind_Speed
2 3 4 4 4 5 6 5 4 5 3 2 2 1 0 1 2 1 0 1 2 2 2 2 2 3 3 4 3 4 4 3 3 3 4 5 4 4 5 4 4 3
3 3 3 3 3 3 4 5 5 5 4 3 3 1 0 1 3 0 1 1 2 3 1 2 3 4 4 4 3 4 3 3 4 2 5 5 3 4 4 4 4 3
4 4 5 5 5 4 5 4 5 4 4 4 3 2 0 1 2 0 1 1 3 3 2 3 4 3 4 4 3 3 3 3 3 3 4 4 3 4 3 3 4 4
4 5 5 5 5 5 5 5 4 3 2 2 2 0 0 1 1 1 1 1 2 2 3 4 4 3 4 3 4 4 3 2 1 2 4 5 4 3 4 3 4 5
4 4 4 4 3 4 4 5 4 3 3 3 0 1 2 3 1 2 0 1 1 3 5 4 4 4 4 4 4 4 3 4 4 5 6 6 5 5 4 4 5 6
4 4 4 4 5 6 5 5 5 4 4 2 1 1 1 2 2 1 2 1 3 5 4 4 4 3 4 4 4 4 4 6 4 6 6 6 5 6 5 5 6 7
4 4 5 5 6 6 6 5 4 4 4 4 2 1 1 3 1 2 2 2 4 4 4 4 4 4 3 4 5 5 5 5 5 6 6 4 5 6 5 5 5 6
5 4 5 6 6 5 5 5 5 5 4 2 3 0 1 1 0 2 2 4 4 4 4 4 4 3 3 4 6 6 5 4 5 5 5 4 5 5 5 4 4 6
5 5 4 6 7 5 5 5 5 4 4 4 3 1 1 0 1 1 3 4 4 4 4 4 4 4 3 5 6 6 6 5 4 5 5 4 5 4 3 3 6 5
5 5 6 6 6 5 6 5 4 4 4 4 3 3 2 0 0 0 4 4 4 4 4 4 5 4 5 5 6 7 7 5 5 5 5 4 4 3 3 4 4 5
5 6 6 6 6 5 5 4 4 4 4 4 3 2 1 0 0 3 4 4 5 4 4 4 4 5 6 6 6 5 6 6 5 5 5 4 4 4 4 4 5 4
7 6 7 7 6 5 5 5 4 4 4 2 3 3 1 1 3 4 4 5 4 4 4 4 4 5 5 6 6 6 6 6 6 5 5 5 4 4 4 4 5 4
7 7 7 6 6 6 5 4 4 4 4 4 4 4 2 3 4 6 3 5 4 4 5 4 4 5 6 6 6 6 7 7 6 6 5 5 5 5 5 5 5 4
7 6 6 6 5 5 4 4 4 4 4 4 4 4 3 4 5 5 4 4 4 5 4 4 5 5 5 5 6 7 7 6 6 6 6 6 5 5 5 6 6 6
6 5 5 5 5 5 4 4 4 4 4 4 4 3 2 5 5 6 6 5 4 4 4 3 5 5 5 6 7 6 7 7 6 6 6 6 6 5 5 6 5 6
7 6 6 5 5 6 5 4 4 5 5 4 4 3 3 5 4 4 6 6 5 4 3 4 3 3 4 11 9 8 7 7 6 5 5 5 6 6 5 5 5 5
7 7 6 7 6 5 4 4 5 5 5 4 4 3 4 6 5 5 4 4 5 5 4 3 3 3 6 12 13 13 9 8 7 6 4 4 5 6 6 5 4 5
8 8 7 7 6 6 5 5 5 4 5 5 4 3 3 5 6 5 5 4 4 4 4 3 2 3 6 12 13 13 11 9 7 7 5 5 4 5 5 5 5 4
9 9 8 8 7 6 5 6 6 5 5 4 4 4 4 5 5 5 5 4 5 6 4 2 1 1 5 10 13 13 12 10 7 7 6 5 5 5 4 3 3 4
9 9 9 9 7 6 6 6 6 7 6 5 4 3 5 5 5 5 5 5 5 5 5 3 2 1 3 8 12 14 13 9 5 6 5 5 5 4 4 5 5 5
9 9 9 8 8 8 7 7 7 6 5 5 5 5 5 7 7 5 4 4 4 4 5 4 2 1 2 7 11 13 13 9 5 4 4 3 3 4 5 6 5 5
10 10 9 9 9 8 8 7 7 7 7 5 4 4 4 5 4 5 6 5 4 5 5 4 3 3 2 6 10 12 12 7 6 6 5 4 3 4 4 4 5 6
11 10 10 10 10 10 9 8 8 7 5 5 5 6 5 5 6 5 5 6 6 5 6 5 4 4 4 6 7 10 9 7 6 6 5 5 4 3 4 4 4 4
10 11 10 10 10 11 10 9 8 6 7 6 8 7 6 5 6 5 5 6 7 7 7 7 5 5 6 6 7 8 8 8 7 7 5 5 4 3 3 4 4 9
10 10 11 11 11 11 10 10 10 10 7 6 7 7 7 5 5 6 5 4 5 7 10 8 6 5 7 7 7 9 8 6 7 7 7 4 6 4 2 2 3 4
10 11 11 12 12 11 10 11 8 7 8 8 7 7 7 6 5 6 7 6 5 5 6 7 7 5 5 8 8 9 10 8 7 7 7 5 5 6 5 2 1 2
Wind_Direction
138 102 152 136 151 149 142 137 139 136 153 166 156 213 353 288 355 32 254 136 97 47 12 6 21 38 43 50 44 60 59 58 46 33 51 46 31 39 45 39 41 45
136 134 149 139 134 138 142 139 146 143 163 182 203 198 262 18 353 265 211 121 93 80 51 48 48 61 67 64 54 68 58 55 46 11 57 45 23 44 41 36 44 33
136 142 148 153 158 160 149 151 147 155 156 189 204 186 163 26 10 299 221 162 110 107 71 58 60 62 72 68 59 57 63 66 61 29 60 50 39 47 21 27 39 36
166 163 172 171 168 155 154 144 149 139 143 156 177 220 199 50 4 233 204 241 122 103 66 80 91 72 70 65 71 63 55 47 18 48 58 42 33 42 23 25 37 36
185 178 179 183 153 128 131 134 143 162 172 178 162 9 19 28 28 127 65 261 107 69 83 89 82 77 73 61 63 71 53 52 28 46 53 50 26 35 19 34 38 41
199 182 177 162 149 140 140 144 158 159 160 137 147 42 357 51 54 122 180 223 75 91 83 84 82 65 72 75 67 65 65 64 53 66 59 52 38 29 31 33 42 42
185 176 163 146 136 144 143 151 156 158 166 179 120 63 18 24 80 222 145 122 116 106 108 98 95 80 68 85 75 70 60 71 64 66 68 43 52 39 27 39 43 49
182 170 155 147 143 151 147 154 150 163 181 140 123 211 74 44 354 248 111 122 116 109 101 99 88 83 76 84 83 77 64 57 62 67 68 52 52 47 25 28 44 53
172 157 160 150 149 156 154 161 155 155 161 143 140 184 76 22 210 249 97 128 114 117 108 92 88 80 70 88 90 89 82 64 60 66 67 63 59 42 29 18 55 50
166 158 156 155 152 162 158 168 158 141 143 130 155 161 110 334 214 162 106 122 119 106 95 100 90 83 77 85 98 97 91 80 68 64 65 65 69 58 39 49 58 60
164 158 157 156 156 161 165 168 150 139 145 145 132 133 157 24 358 61 103 97 107 110 98 91 93 91 94 93 89 91 93 88 77 73 66 65 62 58 60 66 62 65
167 165 166 163 161 161 161 159 150 156 151 153 156 155 216 48 70 69 106 112 112 116 107 96 88 89 95 105 104 98 92 87 83 78 72 69 68 63 64 60 73 61
172 175 172 168 165 166 161 147 152 164 145 168 187 158 130 86 99 104 93 112 115 106 103 103 92 86 98 110 108 103 102 100 93 84 76 75 67 70 68 70 71 70
183 170 170 169 168 166 166 161 154 161 164 164 166 167 142 112 120 116 107 96 103 101 101 104 97 90 98 112 114 115 111 103 103 99 92 82 76 68 70 73 73 72
173 166 162 165 165 167 163 150 164 177 170 168 163 194 123 127 132 127 114 95 76 88 93 87 93 97 117 126 122 115 113 114 112 111 109 103 89 78 70 73 72 73
169 163 162 164 166 174 171 164 168 177 171 178 168 188 156 131 142 133 127 128 117 96 85 84 85 91 116 137 137 134 125 119 117 116 116 113 109 102 86 82 81 81
164 167 160 172 179 175 162 162 174 173 177 179 174 155 157 143 149 132 131 133 132 129 111 97 89 97 125 140 140 136 132 133 132 133 126 120 120 118 117 103 79 70
169 164 168 176 174 177 166 170 172 173 179 180 174 164 127 141 143 142 139 136 124 117 120 131 124 96 123 139 145 145 144 142 142 144 146 145 144 134 128 117 112 100
166 167 172 173 181 172 164 164 174 181 182 178 184 183 121 143 148 137 143 139 132 134 140 150 157 130 123 135 149 154 153 147 151 149 151 160 159 155 142 136 115 94
171 170 173 177 174 167 163 168 176 188 188 189 182 170 132 144 149 148 148 148 153 150 150 165 171 153 133 130 145 156 158 151 152 156 157 159 167 157 131 136 135 126
175 174 175 173 172 168 168 176 181 186 187 189 178 184 153 158 160 157 164 156 158 152 149 163 190 179 158 118 127 143 152 144 138 126 120 126 140 136 141 141 138 126
179 178 176 172 171 170 173 182 185 185 187 188 179 187 147 146 158 158 159 162 165 157 152 174 210 222 170 110 121 132 131 127 127 124 123 121 114 126 129 132 137 134
182 178 178 176 175 175 179 182 185 191 193 180 173 190 165 165 172 176 172 162 165 164 165 182 196 208 173 119 123 137 118 117 118 113 113 106 104 116 130 136 143 139
184 179 178 176 179 186 183 184 184 180 186 181 179 184 188 181 170 170 180 175 165 171 175 174 200 195 174 131 128 145 134 132 129 119 113 113 92 66 105 138 157 148
183 182 180 180 185 189 183 180 183 187 181 176 185 178 187 168 166 170 181 189 185 173 181 178 185 193 179 151 142 134 130 131 133 126 125 130 125 98 43 74 105 124
185 185 186 187 189 186 186 186 177 167 176 179 184 178 179 175 169 176 177 191 194 183 184 174 179 189 185 171 154 141 135 137 138 134 142 153 150 146 123 78 75 94